Flag for United Kingdom Weather past 2 weeks in Londonderry, Northern Ireland, United Kingdom

Now
55 °F

Partly sunny.


Feels Like: 52 °F
Forecast: 51 / 57 °F
Wind: 13 mph from North

Location: Eglinton / Londonderry

Current Time: Sep 2, 2015 at 8:30:32 PM

Latest Report: Sep 2, 2015 at 4:50 PM


Visibility: N/A

Pressure: 30.12 "Hg

Humidity: 67%

Dew point: 45 °F

Location of LondonderryLocation

Historic Weather in Londonderry — Graph

°F

Londonderry temperature yesterday

Maximum temperature yesterday: 59 °F (at 2:50 PM)
Minimum temperature yesterday: 52 °F (at 6:20 AM)
Average temperature yesterday: 56 °F

Past Weeks' High & Low Weather Summary

 TemperatureHumidityPressure
High70 °F (Aug 20, 2:50 PM)100% (Aug 26, 7:20 AM)30.18 "Hg (Aug 26, 7:20 AM)
Low50 °F (Aug 25, 6:20 AM)56% (Aug 24, 3:20 PM)29.30 "Hg (Aug 26, 6:20 AM)
Average60 °F79%29.77 "Hg
* Reported Aug 18 4:20 PM — Sep 2 4:50 PM, Londonderry, Weather by CustomWeather, © 2015

Note: Actual official high and low records may vary slightly from our data, if they occured in-between our weather recording intervals... More about our weather records

Advertising

Londonderry weather history for previous 24 hours

 ConditionsComfort  
Time TempWeatherWind HumidityBarometerVisibility
4:50 PM
Wed, Sep 2
55 °FPartly sunny.13 mph67%30.12 "HgN/A
4:20 PM55 °FPartly sunny.13 mph72%30.15 "HgN/A
3:50 PM54 °FPartly sunny.17 mph77%30.15 "HgN/A
3:20 PM55 °FPartly sunny.17 mph72%30.15 "HgN/A
2:50 PM55 °FPartly sunny.16 mph72%30.15 "HgN/A
2:20 PM55 °FSprinkles. Partly sunny.16 mph67%30.15 "HgN/A
1:50 PM55 °FSprinkles. Partly sunny.13 mph77%30.15 "HgN/A
1:20 PM54 °FSprinkles. Broken clouds.16 mph82%30.15 "HgN/A
12:50 PM57 °FSprinkles. Broken clouds.15 mph77%30.15 "HgN/A
12:20 PM57 °FScattered showers. Broken clouds.17 mph77%30.15 "HgN/A
11:50 AM54 °FScattered showers. Partly sunny.12 mph82%30.15 "HgN/A
11:20 AM55 °FScattered showers. Broken clouds.16 mph77%30.15 "Hg5 mi
10:50 AM55 °FBroken clouds.16 mph77%30.15 "HgN/A
10:20 AM54 °FPartly sunny.14 mph82%30.15 "HgN/A
9:50 AM55 °FPartly sunny.14 mph82%30.15 "HgN/A
9:20 AM54 °FPartly sunny.13 mph88%30.15 "HgN/A
8:50 AM54 °FScattered showers. Partly sunny.10 mph88%30.15 "HgN/A
8:20 AM52 °FScattered showers. Broken clouds.8 mph94%30.18 "HgN/A
7:50 AM52 °FSprinkles. Broken clouds.6 mph94%30.18 "HgN/A
7:20 AM52 °FSprinkles. Passing clouds.13 mph94%30.15 "HgN/A
6:50 AM52 °FPartly cloudy.14 mph88%30.15 "HgN/A
6:20 AM52 °FPartly cloudy.8 mph88%30.15 "HgN/A
Weather by CustomWeather, © 2015

See weather overviewHow to use our weather pages